Location: Unspecified
(0.0000°N, 0.0000°E)
Time: 06:35:44
(UTC+00:00)

S-56A Canister/Altair - Pass Details

Date: 28 November 2019
Orbit: 633 x 2499 km, 38.9° (Epoch: 10 December)

Event Time Altitude Azimuth Distance (km) Brightness Sun altitude
Rises 10:02:49 0° 225° (SW) 5,459 11.9 56.7°
Reaches altitude 10° 10:06:04 10° 224° (SW) 4,648 11.6 57.3°
Maximum altitude 10:19:56 80° 137° (SE) 2,501 11.8 59.8°
Drops below altitude 10° 10:34:58 10° 52° (NE) 4,999 11.8 62.3°
Sets 10:38:36 0° 51° (NE) 5,876 12.0 62.8°
